Погода в Салтове

Россия / Волгоградская область     50°38′40″N   46°38′48″E
темп.,
°C
ветер,
м/с
пор.,
м/с
влажн.,
%
обл.,
%
осадки,
мм/ч
давл.,
гПа
погр.,
м
17 мая, пн
пн1700:00+21ююв454941 0.0 101566
03:00+20юв333882 0.0 101538
06:00+20вюв48455 0.0 1016142
09:00+27вюв7112812 0.0 1015552
12:00+30юв8102165 0.0 10152896
15:00+31юв78205 0.0 10142963
18:00+27в48335 0.0 1014164
21:00+21в512385 0.0 1014159
18 мая, вт
вт1800:00+19в48442 0.0 1014108
03:00+17в49431 0.0 1013120
06:00+19в513463 0.0 1013245
09:00+27юв712270 0.0 1013535
12:00+31юв811200 0.0 10133261
15:00+32вюв810181 0.0 10123596
18:00+28в49325 0.0 1011190
21:00+24в717382 0.0 1011359
19 мая, ср
ср1900:00+22вюв616415 0.0 1011307
03:00+19в4124867 0.0 1011243
06:00+20в5145296 0.0 1011312
09:00+27вюв8123761 0.0 1010856
12:00+30вюв10122753 0.0 10102405
15:00+31вюв910270 0.0 10093100
18:00+28в914393 0.0 1007735
21:00+26в11184432 0.1 1007807
20 мая, чт
чт2000:00+21в71451100 0.3 1009423
03:00+18юв61176100 0.9 1010461
06:00+16юз578035 0.0 1013497
09:00+19ююз4564100 0.0 1014891
12:00+17ююз3476100 0.2 1015496
15:00+19ююв2360100 0.2 1015634
18:00+19юв346393 0.1 1015624
21:00+16ююв347331 0.1 101679
21 мая, пт
пт2100:00+15юз117814 0.0 101611
03:00+14ссв11813 0.0 101610
06:00+16ю11710 0.0 1016100
09:00+21ююз34538 0.0 10171132
12:00+24юз444477 0.0 10171937
15:00+24юз343998 0.0 10171726
18:00+23ююз234899 0.0 1017124
21:00+19вюв225175 0.0 101811